Location: Newark
(54.6833°N, 25.2833°E)
Time: 12:22:36
(UTC+00:00)

deb Explorer IX - All Passes

Search period start: 21 January 2021 00:00
Search period end: 31 January 2021 00:00
Orbit: 536 x 1104 km, 38.8° (Epoch: 20 January)

Date Brightness Start Highest point End Pass type
(mag) Time Alt. Az. Time Alt. Az. Time Alt. Az.
21 Jan - 17:42:47 10° S 17:44:23 11° SSE 17:45:55 10° SSE visible
21 Jan - 19:27:48 10° SSW 19:29:56 13° S 19:31:57 10° SSE visible
22 Jan - 17:18:39 10° S 17:20:43 12° SSE 17:22:41 10° SSE visible
22 Jan - 19:03:50 10° SSW 19:06:19 13° S 19:08:38 10° SSE visible
23 Jan - 16:54:34 10° SSW 16:57:03 13° SSE 16:59:23 10° SE visible
23 Jan - 18:39:52 10° SW 18:42:39 14° S 18:45:16 10° SSE visible
24 Jan - 16:30:32 10° SSW 16:33:21 13° SSE 16:36:00 10° SE visible
24 Jan - 18:15:54 10° SW 18:18:59 15° S 18:21:51 10° SSE visible
25 Jan - 16:06:30 10° SSW 16:09:38 14° SSE 16:12:35 10° SE visible
25 Jan - 17:51:56 10° SW 17:55:18 16° S 17:58:25 10° SSE visible
26 Jan - 15:42:29 10° SSW 15:45:54 15° SSE 15:49:07 10° SE visible
26 Jan - 17:27:57 10° SW 17:31:36 16° S 17:34:58 10° SSE visible
27 Jan - 15:18:29 10° SSW 15:22:09 15° SSE 15:25:36 10° SE visible
27 Jan - 17:03:58 10° SW 17:07:53 17° S 17:11:29 10° SSE visible
27 Jan - 18:52:17 10° SW 18:53:21 10° SSW 18:54:23 10° SSW visible
28 Jan - 14:54:29 10° SSW 14:58:23 16° SSE 15:02:04 10° SE daylight
28 Jan - 16:40:00 10° SW 16:44:08 18° S 16:47:58 10° SE visible
28 Jan - 18:27:59 10° SW 18:29:38 11° SSW 18:31:14 10° S visible
29 Jan - 14:30:30 10° SSW 14:34:36 17° SSE 14:38:28 10° SE daylight
29 Jan - 16:16:01 10° SW 16:20:23 18° S 16:24:25 10° SE visible
29 Jan - 18:03:48 10° SW 18:05:55 12° SSW 18:07:56 10° S visible
30 Jan - 14:06:31 10° SSW 14:10:47 17° SSE 14:14:52 10° SE daylight
30 Jan - 15:52:01 10° SW 15:56:36 19° S 16:00:50 10° SE visible
30 Jan - 17:39:40 10° SW 17:42:10 12° SSW 17:44:32 10° S visible
